Terug naar catalogus

YAOGAN 9A

ActiefMilitairLEO
NORAD 36413·PAYLOAD·🇨🇳 China

Gelanceerd Mar 5, 2010 vanaf Jiuquan Satellite Launch Center

Loading…

Volgende Passages (komende 24 uur)

TLE

VersSource: Space-Track

Epoch: Sep 14, 2026, 14:16 UTC

1 36413U 10009A   26257.59498050 -.00000001  00000-0  62968-4 0  9996
2 36413  63.3623 126.8231 0545135  22.4622 339.9315 13.45716935812004

Volg YAOGAN 9A in realtime met AllMySat

Download on the App Store